Location: Unspecified
(48.5670°N, 0.0000°E)
Time: 21:00:30
(UTC+00:00)

Vanguard 2 Rocket - Pass Details

Date: 28 August 2019
Orbit: 553 x 3327 km, 32.9° (Epoch: 23 October)

Event Time Altitude Azimuth Distance (km) Brightness Sun altitude
Rises 04:37:16 0° 257° (WSW) 5,178 - -6.1°
Exits shadow 04:39:14 - 254° (WSW) 4,751 9.9 -5.8°
Reaches altitude 10° 04:40:25 10° 251° (WSW) 4,515 9.8 -5.6°
Maximum altitude 04:52:45 42° 186° (S) 3,572 9.7 -3.7°
Drops below altitude 10° 05:10:13 10° 125° (SE) 6,265 11.8 -1.0°
Sets 05:15:36 0° 120° (ESE) 7,305 12.3 -0.1°
